Weather History for International Falls, MN

Change the Weather History Date:

Sunday, September 9, 2012

  Actual Average Record
Temperature  
Mean Temperature 51 °F 56 °F  
Max Temperature 67 °F 68 °F 93 °F (1906)
Min Temperature 34 °F 45 °F 25 °F (2006)
Degree Days  
Heating Degree Days 14 9  
Month to date heating degree days 65 70  
Since 1 July heating degree days 191 251  
Cooling Degree Days 0 1  
Month to date cooling degree days 2 9  
Year to date cooling degree days 220 190  
Moisture  
Dew Point 45 °F    
Average Humidity 74    
Maximum Humidity 100    
Minimum Humidity 48    
Precipitation  
Precipitation 0.00 in 0.10 in 1.25 in (1925)
Month to date precipitation 0.22 0.90  
Year to date precipitation 19.44 17.86  
Snow  
Snow 0.00 in 0.00 in 0.00 in (2002)
Month to date snowfall 0.0 0.0  
Since 1 July snowfall 0.0 0.0  
Since 1 September snowfall 0.0 0.0  
Snow Depth 0.00 in    
Sea Level Pressure  
Sea Level Pressure 30.14 in    
Wind  
Wind Speed 3 mph (NW)    
Max Wind Speed 9 mph    
Max Gust Speed 17 mph    
Visibility 8 miles    
Events Fog    
T = Trace of Precipitation, MM = Missing Value Source: NWS Daily Summary

Daily Weather History Graph

Daily Weather History Graph

Search for Another Location

Airport:

Trip Planner

Search our weather history database for the weather conditions in past years. The results will help you decide how hot, cold, wet, or windy it might be!

Date:

Astronomy

Sep. 09, 2012 Rise Set
Actual Time 6:42 AM CDT 7:37 PM CDT
Civil Twilight 6:10 AM CDT 8:09 PM CDT
Nautical Twilight 5:32 AM CDT 8:47 PM CDT
Astronomical Twilight 4:51 AM CDT 9:27 PM CDT
Moon No Moon Rise 3:45 PM CDT (9/9)
Length of Visible Light 13h 58m
Length of Day
12h 55m
Last Quarter, 39% of the Moon is Illuminated
Sep 9
Last Quarter
Sep 15
New
Sep 22
First Quarter
Sep 29
Full
Oct 8
Last Quarter

Hourly Weather History & Observations

Time (CDT) Temp. Windchill Dew Point Humidity Pressure Visibility Wind Dir Wind Speed Gust Speed Precip Events Conditions
12:55 AM 45.0 °F 43.5 °F 45.0 °F 100% 30.10 in 10.0 mi NW 3.5 mph - N/A   Clear
1:55 AM 45.0 °F 41.8 °F 44.1 °F 97% 30.11 in 10.0 mi NNW 5.8 mph - N/A   Clear
2:55 AM 45.0 °F 42.6 °F 44.1 °F 97% 30.12 in 10.0 mi NW 4.6 mph - N/A   Clear
3:55 AM 43.0 °F 39.5 °F 43.0 °F 100% 30.14 in 10.0 mi NW 5.8 mph - N/A   Clear
4:55 AM 39.9 °F - 39.9 °F 100% 30.15 in 10.0 mi Calm Calm - N/A   Clear
5:55 AM 36.0 °F - 35.1 °F 97% 30.17 in 10.0 mi Calm Calm - N/A   Clear
6:42 AM 35.6 °F - 35.6 °F 100% 30.16 in 2.5 mi Calm Calm - N/A   Scattered Clouds
6:47 AM 37.4 °F - 35.6 °F 93% 30.16 in 1.2 mi Calm Calm - N/A   Mostly Cloudy
6:55 AM 36.0 °F - 36.0 °F 100% 30.20 in 0.5 mi Calm Calm - N/A Fog Fog
7:07 AM 37.4 °F - 37.4 °F 100% 30.17 in 0.2 mi Calm Calm - N/A Fog Fog
7:55 AM 41.0 °F 39.0 °F 41.0 °F 100% 30.20 in 0.2 mi WNW 3.5 mph - N/A Fog Fog
8:36 AM 48.2 °F - 48.2 °F 100% 30.18 in 0.8 mi NNW 4.6 mph - N/A   Mist
8:43 AM 48.2 °F - 48.2 °F 100% 30.18 in 2.0 mi NNW 4.6 mph - N/A   Overcast
8:51 AM 50.0 °F - 48.2 °F 94% 30.18 in 10.0 mi NNW 4.6 mph - N/A   Mostly Cloudy
8:55 AM 50.0 °F - 48.9 °F 96% 30.20 in 10.0 mi NW 4.6 mph - N/A   Mostly Cloudy
9:02 AM 50.0 °F - 48.2 °F 94% 30.18 in 10.0 mi NNW 4.6 mph - N/A   Scattered Clouds
9:55 AM 55.9 °F - 51.1 °F 84% 30.20 in 10.0 mi NNE 3.5 mph - N/A   Clear
10:55 AM 59.0 °F - 48.0 °F 67% 30.20 in 10.0 mi NNW 4.6 mph - N/A   Scattered Clouds
11:06 AM 59.0 °F - 48.2 °F 67% 30.18 in 10.0 mi Calm Calm - N/A   Mostly Cloudy
11:14 AM 60.8 °F - 48.2 °F 63% 30.18 in 10.0 mi Variable 3.5 mph - N/A   Scattered Clouds
11:32 AM 57.2 °F - 46.4 °F 67% 30.17 in 10.0 mi North 3.5 mph - N/A   Mostly Cloudy
11:44 AM 60.8 °F - 46.4 °F 59% 30.17 in 10.0 mi Variable 3.5 mph - N/A   Mostly Cloudy
11:55 AM 59.0 °F - 45.0 °F 60% 30.19 in 10.0 mi NW 3.5 mph - N/A   Mostly Cloudy
12:55 PM 63.0 °F - 46.9 °F 56% 30.18 in 10.0 mi Calm Calm - N/A   Partly Cloudy
1:55 PM 64.9 °F - 46.0 °F 50% 30.16 in 10.0 mi West 5.8 mph - N/A   Partly Cloudy
2:55 PM 66.0 °F - 46.0 °F 48% 30.14 in 10.0 mi Variable 5.8 mph - N/A   Clear
3:55 PM 66.9 °F - 46.0 °F 47% 30.12 in 10.0 mi Variable 4.6 mph - N/A   Clear
4:55 PM 66.9 °F - 46.0 °F 47% 30.10 in 10.0 mi South 6.9 mph - N/A   Clear
5:55 PM 66.9 °F - 46.0 °F 47% 30.09 in 10.0 mi West 3.5 mph - N/A   Clear
6:55 PM 64.0 °F - 46.9 °F 54% 30.08 in 10.0 mi Calm Calm - N/A   Clear
7:55 PM 53.1 °F - 48.0 °F 83% 30.07 in 10.0 mi Calm Calm - N/A   Clear
8:55 PM 46.9 °F - 44.1 °F 90% 30.06 in 10.0 mi Calm Calm - N/A   Clear
9:55 PM 46.9 °F - 44.1 °F 90% 30.06 in 10.0 mi Calm Calm - N/A   Clear
10:55 PM 46.0 °F - 43.0 °F 89% 30.05 in 10.0 mi Calm Calm - N/A   Clear
11:55 PM 48.0 °F - 45.0 °F 89% 30.04 in 10.0 mi SE 3.5 mph - N/A   Clear